Terminal Aerodrome Forecast
Issued by NWS Riverton, WY

Home | Current Version | Previous Version | Text Only | Print | Product List | Glossary On
Versions: 1 2 3 4 5 6 7 8 9 10 11 12 13 14 15 16 17 18 19 20
000
FTUS45 KRIW 281100
TAFRIW
TAF
KRIW 281128Z 2812/2912 24007KT P6SM SCT080 BKN130
     FM282200 35007KT P6SM VCSH BKN040
     FM290100 36011KT 5SM -SN OVC030
     FM290300 01015G25KT 2SM -SN BLSN SCT012 OVC020=

USA.gov is the U.S. government's official web portal to all federal, state and local government web resources and services.